Hlavní strana
METAR-TAF:

METAR-TAF

Letiště :

Shelby, Severní Karolína, Spojené státy americké

zeměpisná šířka: 35-15N, zeměpisná délka: 081-36W, výška: 258 m

Aktuální stav počasí

Zpráva byla vytvořena před 5 minutami, v 12:55 UTC
Bezvětří
Teplota -1°C
Vlhkost vzduchu 93%
Tlak 1016 hPa
Viditelnost: 16.1 km
Jasno

METAR: KEHO 281255Z AUTO 00000KT 10SM CLR M01/M02 A3000 RMK AO2 T10121024

Čas: 08:00 (13:00 UTC)


TAF: chybějící

Stav a předpovědi počasí z více než 4 000 letišť (zprávy METAR a TAF).

Červené a žluté tečky na mapě představují dostupné meteorologické stanice.

Když kurzor umístíte na tečku, zobrazí se název stanice.

Pak kliknutím zobrazíte stav a předpověď počasí.

Chcete-li změnit mapu, kliknutím na zelené tlačítko se znaménkem +mapu přiblížíte, kliknutím na zelené tlačítko se znaménkem – mapu oddálíte a kliknutím na zelené šipky přejdete na sousední mapy.


METAR-TAF: